This is the latest recevied weather packets stored in our database for station/object NE1CU. If no packets are shown the sender has not sent any weather packets the latest 10 day(s).
| Time | Temp. | Humidity | Pressure | Rain* | Wind** | Luminosity | Snow |
|---|---|---|---|---|---|---|---|
| 1777488823 | 17.22° C | 49% | 1013.6 hPa | 0 mm | - | 485 W/m² | - |
| 1777488520 | 17.78° C | 50% | 1013.6 hPa | 0 mm | - | 543 W/m² | - |
| 1777488218 | 17.22° C | 52% | 1013.7 hPa | 0 mm | - | 692 W/m² | - |
| 1777487916 | 16.67° C | 52% | 1013.8 hPa | 0 mm | - | 648 W/m² | - |
| 1777487614 | 17.22° C | 49% | 1014 hPa | 0 mm | - | 408 W/m² | - |
| 1777487311 | 17.22° C | 48% | 1014 hPa | 0 mm | - | 613 W/m² | - |
| 1777487008 | 16.67° C | 49% | 1014.1 hPa | 0 mm | - | 702 W/m² | - |
| 1777486704 | 16.67° C | 48% | 1014.1 hPa | 0 mm | - | 518 W/m² | - |
| 1777486402 | 16.67° C | 46% | 1013.9 hPa | 0 mm | - | 547 W/m² | - |
| 1777486099 | 16.67° C | 46% | 1014 hPa | 0 mm | - | 449 W/m² | - |
| 1777485795 | 16.67° C | 45% | 1014 hPa | 0 mm | - | 451 W/m² | - |
| 1777485491 | 16.67° C | 46% | 1013.9 hPa | 0 mm | - | 453 W/m² | - |
| 1777485187 | 17.78° C | 43% | 1014 hPa | 0 mm | - | 464 W/m² | - |
| 1777484884 | 18.33° C | 46% | 1014 hPa | 0 mm | - | 629 W/m² | - |
| 1777484581 | 18.89° C | 43% | 1013.9 hPa | 0 mm | - | 636 W/m² | - |
| 1777484277 | 18.89° C | 44% | 1014 hPa | 0 mm | - | 883 W/m² | - |
| 1777483974 | 18.89° C | 43% | 1013.9 hPa | 0 mm | - | 976 W/m² | - |
| 1777483670 | 18.89° C | 44% | 1014.1 hPa | 0 mm | - | 946 W/m² | - |
| 1777483366 | 18.33° C | 44% | 1014 hPa | 0 mm | - | 978 W/m² | - |
| 1777483061 | 17.78° C | 44% | 1014.3 hPa | 0 mm | - | 899 W/m² | - |
| 1777482758 | 17.78° C | 45% | 1014.3 hPa | 0 mm | - | 874 W/m² | - |
| 1777482454 | 17.22° C | 48% | 1014.5 hPa | 0 mm | - | 845 W/m² | - |
| 1777482152 | 17.78° C | 45% | 1014.5 hPa | 0 mm | - | 817 W/m² | - |
| 1777481850 | 17.22° C | 44% | 1014.5 hPa | 0 mm | - | 865 W/m² | - |
| 1777481546 | 17.78° C | 43% | 1014.5 hPa | 0 mm | - | 672 W/m² | - |
* Rain latest hour (hover to see other rain measurements)
** Current wind speed in m/s (hover to see current wind gust speed)